| time (UTC) | temp C | wind direction | speed KPH | gust KPH | rain 1hr cm | rain 24hr cm | rain mn cm | humidity % | barometer mb |
| 20260906222042 | 20 | 315 | 3.2 | 9.7 | 0.00 | 0.03 | 0.03 | 54 | 1024.1 |
| 20260906221022 | 20 | 315 | 4.8 | 8.0 | 0.00 | 0.03 | 0.03 | 54 | 1024.1 |
| 20260906220022 | 21 | 45 | 3.2 | 6.4 | 0.00 | 0.03 | 0.03 | 54 | 1024.2 |
| 20260906215022 | 21 | 45 | 1.6 | 3.2 | 0.00 | 0.03 | 0.03 | 53 | 1024.2 |
| 20260906214022 | 21 | 0 | 3.2 | 6.4 | 0.00 | 0.03 | 0.03 | 54 | 1024.2 |
| 20260906213022 | 21 | 23 | 1.6 | 4.8 | 0.03 | 0.03 | 0.03 | 54 | 1024.5 |
| 20260906212022 | 21 | 45 | 1.6 | 6.4 | 0.03 | 0.03 | 0.03 | 56 | 1024.4 |
| 20260906211022 | 20 | 23 | 3.2 | 8.0 | 0.03 | 0.03 | 0.03 | 55 | 1024.5 |
| 20260906210016 | 20 | 0 | 4.8 | 8.0 | 0.03 | 0.03 | 0.03 | 59 | 1024.6 |
| 20260906205022 | 19 | 68 | 4.8 | 12.9 | 0.03 | 0.03 | 0.03 | 61 | 1024.5 |
| 20260906204022 | 19 | 68 | 4.8 | 9.7 | 0.03 | 0.03 | 0.03 | 68 | 1024.5 |
| 20260906203022 | 20 | 90 | 6.4 | 16.1 | 0.00 | 0.00 | 0.00 | 54 | 1024.6 |
| 20260906202022 | 21 | 68 | 4.8 | 14.5 | 0.00 | 0.00 | 0.00 | 50 | 1025.0 |
| 20260906201022 | 21 | 68 | 4.8 | 14.5 | 0.00 | 0.00 | 0.00 | 48 | 1025.0 |
| 20260906200022 | 21 | 23 | 6.4 | 14.5 | 0.00 | 0.00 | 0.00 | 48 | 1024.7 |
| 20260906195022 | 21 | 45 | 11.3 | 19.3 | 0.00 | 0.00 | 0.00 | 47 | 1025.0 |
| 20260906194022 | 21 | 45 | 8.0 | 19.3 | 0.00 | 0.00 | 0.00 | 47 | 1025.0 |
| 20260906193017 | 21 | 45 | 16.1 | 25.7 | 0.00 | 0.00 | 0.00 | 46 | 1025.0 |
| 20260906192016 | 22 | 45 | 14.5 | 27.4 | 0.00 | 0.00 | 0.00 | 44 | 1025.2 |
| 20260906191022 | 22 | 45 | 12.9 | 27.4 | 0.00 | 0.00 | 0.00 | 44 | 1025.2 |
| 20260906190042 | 22 | 45 | 9.7 | 20.9 | 0.00 | 0.00 | 0.00 | 45 | 1025.4 |
| 20260906185042 | 21 | 45 | 14.5 | 24.1 | 0.00 | 0.00 | 0.00 | 46 | 1025.5 |
| 20260906184020 | 21 | 45 | 11.3 | 19.3 | 0.00 | 0.00 | 0.00 | 45 | 1025.5 |
| 20260906183016 | 21 | 45 | 14.5 | 24.1 | 0.00 | 0.00 | 0.00 | 46 | 1025.6 |
| 20260906182022 | 22 | 45 | 8.0 | 19.3 | 0.00 | 0.00 | 0.00 | 46 | 1026.2 |
| 20260906181016 | 22 | 68 | 8.0 | 22.5 | 0.00 | 0.00 | 0.00 | 46 | 1026.0 |
| 20260906180042 | 22 | 45 | 14.5 | 25.7 | 0.00 | 0.00 | 0.00 | 47 | 1026.3 |
| 20260906175022 | 23 | 45 | 9.7 | 20.9 | 0.00 | 0.00 | 0.00 | 43 | 1026.2 |
| 20260906174022 | 23 | 45 | 9.7 | 20.9 | 0.00 | 0.00 | 0.00 | 42 | 1026.3 |
| 20260906173022 | 23 | 68 | 11.3 | 22.5 | 0.00 | 0.00 | 0.00 | 42 | 1026.4 |
| 20260906172022 | 23 | 68 | 8.0 | 19.3 | 0.00 | 0.00 | 0.00 | 42 | 1026.6 |
| 20260906171022 | 22 | 45 | 9.7 | 22.5 | 0.00 | 0.00 | 0.00 | 44 | 1026.5 |
| 20260906170022 | 22 | 45 | 9.7 | 19.3 | 0.00 | 0.00 | 0.00 | 44 | 1026.5 |
| 20260906165022 | 22 | 45 | 8.0 | 16.1 | 0.00 | 0.00 | 0.00 | 42 | 1026.4 |
| 20260906164022 | 23 | 45 | 9.7 | 17.7 | 0.00 | 0.00 | 0.00 | 38 | 1026.8 |
| 20260906163022 | 23 | 68 | 4.8 | 14.5 | 0.00 | 0.00 | 0.00 | 39 | 1026.7 |
| 20260906162016 | 23 | 45 | 6.4 | 14.5 | 0.00 | 0.00 | 0.00 | 37 | 1026.8 |
| 20260906161022 | 23 | 23 | 6.4 | 12.9 | 0.00 | 0.00 | 0.00 | 36 | 1026.9 |
| 20260906160022 | 23 | 90 | 1.6 | 9.7 | 0.00 | 0.00 | 0.00 | 36 | 1026.9 |
| 20260906155022 | 23 | 90 | 6.4 | 14.5 | 0.00 | 0.00 | 0.00 | 37 | 1026.7 |
| 20260906154022 | 22 | 135 | 3.2 | 8.0 | 0.00 | 0.00 | 0.00 | 37 | 1026.5 |
| 20260906153022 | 22 | 203 | 1.6 | 4.8 | 0.00 | 0.00 | 0.00 | 36 | 1026.5 |
| 20260906152022 | 22 | 180 | 1.6 | 4.8 | 0.00 | 0.00 | 0.00 | 38 | 1026.4 |
| 20260906151016 | 21 | 203 | 3.2 | 6.4 | 0.00 | 0.00 | 0.00 | 38 | 1026.5 |
| 20260906150022 | 20 | 203 | 1.6 | 6.4 | 0.00 | 0.00 | 0.00 | 42 | 1026.4 |
| 20260906145016 | 19 | 203 | 4.8 | 9.7 | 0.00 | 0.00 | 0.00 | 43 | 1026.3 |
| 20260906144022 | 18 | 203 | 4.8 | 9.7 | 0.00 | 0.00 | 0.00 | 45 | 1026.3 |
| 20260906143022 | 17 | 225 | 4.8 | 8.0 | 0.00 | 0.00 | 0.00 | 47 | 1025.9 |
| 20260906142016 | 17 | 203 | 8.0 | 14.5 | 0.00 | 0.00 | 0.00 | 47 | 1026.1 |
| 20260906141022 | 17 | 203 | 6.4 | 11.3 | 0.00 | 0.00 | 0.00 | 47 | 1026.1 |
| 20260906140036 | 16 | 225 | 4.8 | 9.7 | 0.00 | 0.00 | 0.00 | 49 | 1025.8 |
| 20260906135022 | 16 | 203 | 8.0 | 12.9 | 0.00 | 0.00 | 0.00 | 50 | 1025.8 |
| 20260906134042 | 15 | 225 | 9.7 | 19.3 | 0.00 | 0.00 | 0.00 | 51 | 1025.8 |
| 20260906133021 | 15 | 225 | 11.3 | 17.7 | 0.00 | 0.00 | 0.00 | 52 | 1025.4 |
| 20260906132021 | 15 | 225 | 9.7 | 12.9 | 0.00 | 0.00 | 0.00 | 52 | 1025.5 |
| 20260906131016 | 15 | 225 | 8.0 | 11.3 | 0.00 | 0.00 | 0.00 | 52 | 1025.3 |
| 20260906130022 | 15 | 248 | 8.0 | 14.5 | 0.00 | 0.00 | 0.00 | 50 | 1025.5 |
| 20260906125022 | 15 | 270 | 6.4 | 14.5 | 0.00 | 0.00 | 0.00 | 51 | 1025.5 |
| 20260906124056 | 15 | 248 | 6.4 | 11.3 | 0.00 | 0.00 | 0.00 | 50 | 1025.4 |
| 20260906123041 | 15 | 248 | 6.4 | 11.3 | 0.00 | 0.00 | 0.00 | 49 | 1025.2 |
| 20260906122042 | 15 | 225 | 9.7 | 17.7 | 0.00 | 0.00 | 0.00 | 50 | 1025.3 |
| 20260906121016 | 15 | 225 | 9.7 | 16.1 | 0.00 | 0.00 | 0.00 | 51 | 1025.3 |
| 20260906120021 | 14 | 225 | 11.3 | 17.7 | 0.00 | 0.00 | 0.00 | 53 | 1025.2 |
| 20260906115021 | 13 | 225 | 11.3 | 16.1 | 0.00 | 0.00 | 0.00 | 55 | 1025.1 |
| 20260906114021 | 13 | 225 | 12.9 | 17.7 | 0.00 | 0.00 | 0.00 | 56 | 1025.3 |
| 20260906113022 | 13 | 225 | 12.9 | 22.5 | 0.00 | 0.00 | 0.00 | 57 | 1025.1 |
| 20260906112021 | 13 | 225 | 11.3 | 19.3 | 0.00 | 0.00 | 0.00 | 57 | 1025.3 |
| 20260906111016 | 14 | 225 | 11.3 | 17.7 | 0.00 | 0.00 | 0.00 | 56 | 1025.3 |
| 20260906110021 | 14 | 225 | 11.3 | 17.7 | 0.00 | 0.00 | 0.00 | 56 | 1025.4 |
| 20260906105019 | 13 | 225 | 11.3 | 17.7 | 0.00 | 0.00 | 0.00 | 58 | 1025.8 |
| 20260906104016 | 13 | 225 | 9.7 | 16.1 | 0.00 | 0.00 | 0.00 | 58 | 1025.9 |
| 20260906103016 | 14 | 203 | 8.0 | 14.5 | 0.00 | 0.00 | 0.00 | 57 | 1025.7 |
| 20260906102021 | 14 | 203 | 8.0 | 11.3 | 0.00 | 0.00 | 0.00 | 58 | 1026.0 |
| 20260906101016 | 14 | 203 | 8.0 | 12.9 | 0.00 | 0.00 | 0.00 | 59 | 1026.0 |
| 20260906100016 | 15 | 203 | 8.0 | 12.9 | 0.00 | 0.00 | 0.00 | 58 | 1026.0 |
| 20260906095022 | 15 | 225 | 6.4 | 9.7 | 0.00 | 0.00 | 0.00 | 58 | 1025.7 |
| 20260906094021 | 15 | 180 | 4.8 | 11.3 | 0.00 | 0.00 | 0.00 | 58 | 1026.0 |
| 20260906093021 | 15 | 225 | 11.3 | 22.5 | 0.00 | 0.00 | 0.00 | 58 | 1026.1 |
| 20260906092016 | 15 | 225 | 9.7 | 19.3 | 0.00 | 0.00 | 0.00 | 58 | 1026.1 |
| 20260906091022 | 15 | 248 | 8.0 | 16.1 | 0.00 | 0.00 | 0.00 | 58 | 1025.9 |
| 20260906090021 | 15 | 225 | 8.0 | 17.7 | 0.00 | 0.00 | 0.00 | 58 | 1025.9 |
| 20260906085021 | 15 | 225 | 11.3 | 24.1 | 0.00 | 0.00 | 0.00 | 59 | 1025.7 |
| 20260906084021 | 15 | 248 | 8.0 | 16.1 | 0.00 | 0.00 | 0.00 | 61 | 1025.6 |
| 20260906083042 | 14 | 225 | 6.4 | 12.9 | 0.00 | 0.00 | 0.00 | 62 | 1025.6 |
| 20260906082036 | 15 | 225 | 6.4 | 11.3 | 0.00 | 0.00 | 0.00 | 62 | 1025.6 |
| 20260906081021 | 15 | 225 | 3.2 | 6.4 | 0.00 | 0.00 | 0.00 | 61 | 1025.9 |
| 20260906080021 | 15 | 248 | 6.4 | 12.9 | 0.00 | 0.00 | 0.00 | 61 | 1026.0 |
| 20260906075021 | 15 | 225 | 9.7 | 14.5 | 0.00 | 0.00 | 0.00 | 61 | 1025.9 |
| 20260906074016 | 15 | 225 | 9.7 | 16.1 | 0.00 | 0.00 | 0.00 | 62 | 1026.0 |
| 20260906073021 | 15 | 225 | 8.0 | 14.5 | 0.00 | 0.00 | 0.00 | 64 | 1025.9 |
| 20260906072021 | 15 | 225 | 9.7 | 20.9 | 0.00 | 0.00 | 0.00 | 64 | 1026.2 |
| 20260906071021 | 15 | 225 | 9.7 | 16.1 | 0.00 | 0.00 | 0.00 | 63 | 1026.2 |
| 20260906070021 | 15 | 225 | 9.7 | 22.5 | 0.00 | 0.00 | 0.00 | 62 | 1026.1 |
| 20260906065041 | 15 | 225 | 8.0 | 16.1 | 0.00 | 0.00 | 0.00 | 60 | 1026.1 |
| 20260906064016 | 16 | 225 | 9.7 | 16.1 | 0.00 | 0.00 | 0.00 | 60 | 1026.2 |
| 20260906063016 | 16 | 225 | 9.7 | 19.3 | 0.00 | 0.00 | 0.00 | 59 | 1026.2 |
| 20260906062015 | 16 | 225 | 4.8 | 14.5 | 0.00 | 0.00 | 0.00 | 56 | 1026.7 |
| 20260906061016 | 17 | 225 | 4.8 | 12.9 | 0.00 | 0.00 | 0.00 | 54 | 1026.8 |
| 20260906060016 | 17 | 225 | 4.8 | 9.7 | 0.00 | 0.00 | 0.00 | 53 | 1026.9 |
| 20260906055021 | 17 | 203 | 1.6 | 6.4 | 0.00 | 0.00 | 0.00 | 52 | 1027.4 |
| 20260906054021 | 17 | 203 | 3.2 | 8.0 | 0.00 | 0.00 | 0.00 | 53 | 1027.6 |
| 20260906053021 | 17 | 180 | 4.8 | 11.3 | 0.00 | 0.00 | 0.00 | 53 | 1027.6 |
| 20260906052015 | 17 | 225 | 6.4 | 14.5 | 0.00 | 0.00 | 0.00 | 53 | 1027.2 |
| 20260906051015 | 17 | 225 | 8.0 | 16.1 | 0.00 | 0.00 | 0.00 | 54 | 1027.2 |
| 20260906050041 | 17 | 225 | 11.3 | 19.3 | 0.00 | 0.00 | 0.00 | 55 | 1027.1 |
| 20260906045035 | 16 | 225 | 9.7 | 20.9 | 0.00 | 0.00 | 0.00 | 58 | 1027.2 |
| 20260906044015 | 16 | 225 | 9.7 | 20.9 | 0.00 | 0.00 | 0.00 | 58 | 1027.1 |
| 20260906043015 | 16 | 225 | 11.3 | 19.3 | 0.00 | 0.00 | 0.00 | 58 | 1027.1 |
| 20260906042021 | 17 | 203 | 11.3 | 16.1 | 0.00 | 0.00 | 0.00 | 56 | 1026.8 |
| 20260906041015 | 17 | 248 | 6.4 | 12.9 | 0.00 | 0.00 | 0.00 | 53 | 1026.8 |
| 20260906040015 | 17 | 225 | 11.3 | 20.9 | 0.00 | 0.00 | 0.00 | 54 | 1026.9 |
| 20260906035041 | 17 | 225 | 16.1 | 27.4 | 0.00 | 0.00 | 0.00 | 51 | 1026.8 |
| 20260906034021 | 16 | 225 | 9.7 | 22.5 | 0.00 | 0.00 | 0.00 | 52 | 1026.7 |
| 20260906033041 | 16 | 225 | 11.3 | 19.3 | 0.00 | 0.00 | 0.00 | 51 | 1026.3 |
| 20260906032041 | 17 | 225 | 9.7 | 17.7 | 0.00 | 0.00 | 0.00 | 51 | 1025.8 |
| 20260906031021 | 16 | 225 | 11.3 | 17.7 | 0.00 | 0.00 | 0.00 | 51 | 1025.8 |
| 20260906030015 | 16 | 225 | 11.3 | 20.9 | 0.00 | 0.00 | 0.00 | 54 | 1025.8 |
| 20260906025015 | 16 | 225 | 9.7 | 16.1 | 0.00 | 0.00 | 0.00 | 56 | 1025.6 |
| 20260906024021 | 16 | 225 | 8.0 | 12.9 | 0.00 | 0.00 | 0.00 | 54 | 1025.6 |
| 20260906023035 | 17 | 225 | 8.0 | 12.9 | 0.00 | 0.00 | 0.00 | 52 | 1025.7 |
| 20260906022021 | 17 | 225 | 6.4 | 12.9 | 0.00 | 0.00 | 0.00 | 51 | 1025.6 |
| 20260906021020 | 18 | 225 | 8.0 | 17.7 | 0.00 | 0.00 | 0.00 | 51 | 1025.5 |
| 20260906020015 | 18 | 225 | 6.4 | 11.3 | 0.00 | 0.00 | 0.00 | 49 | 1025.5 |
| 20260906015021 | 18 | 203 | 4.8 | 12.9 | 0.00 | 0.00 | 0.00 | 49 | 1025.2 |
| 20260906014015 | 18 | 225 | 8.0 | 16.1 | 0.00 | 0.00 | 0.00 | 51 | 1025.4 |
| 20260906013021 | 18 | 225 | 6.4 | 12.9 | 0.00 | 0.00 | 0.00 | 53 | 1025.4 |
| 20260906012020 | 19 | 225 | 8.0 | 17.7 | 0.00 | 0.00 | 0.00 | 48 | 1025.4 |
| 20260906011015 | 19 | 270 | 17.7 | 20.9 | 0.00 | 0.00 | 0.00 | 45 | 1025.3 |
| 20260906010015 | 20 | 293 | 19.3 | 25.7 | 0.00 | 0.00 | 0.00 | 41 | 1025.3 |
| 20260906005020 | 18 | 203 | 6.4 | 9.7 | 0.00 | 0.00 | 0.00 | 48 | 1025.3 |
| 20260906004101 | 19 | 225 | 6.4 | 12.9 | 0.00 | 0.00 | 0.00 | 46 | 1025.4 |
| 20260906003020 | 20 | 225 | 4.8 | 9.7 | 0.00 | 0.00 | 0.00 | 45 | 1025.5 |
| 20260906002015 | 21 | 225 | 3.2 | 6.4 | 0.00 | 0.00 | 0.00 | 43 | 1025.6 |
| 20260906001021 | 20 | 270 | 4.8 | 11.3 | 0.00 | 0.00 | 0.00 | 40 | 1025.4 |
| 20260906000040 | 20 | 293 | 9.7 | 17.7 | 0.00 | 0.00 | 0.00 | 40 | 1025.5 |
| 20260905235015 | 20 | 315 | 8.0 | 14.5 | 0.00 | 0.00 | 0.00 | 40 | 1025.4 |
| 20260905234020 | 20 | 293 | 19.3 | 27.4 | 0.00 | 0.00 | 0.00 | 42 | 1025.4 |
| 20260905233040 | 20 | 293 | 19.3 | 37.0 | 0.00 | 0.00 | 0.00 | 42 | 1025.3 |
| 20260905232020 | 21 | 270 | 16.1 | 30.6 | 0.00 | 0.00 | 0.00 | 38 | 1025.6 |
| 20260905231021 | 21 | 45 | 9.7 | 32.2 | 0.00 | 0.00 | 0.00 | 38 | 1025.5 |
| 20260905230020 | 22 | 135 | 8.0 | 14.5 | 0.00 | 0.00 | 0.00 | 34 | 1025.6 |
| 20260905225015 | 23 | 113 | 12.9 | 25.7 | 0.00 | 0.00 | 0.00 | 32 | 1025.6 |
| 20260905224020 | 23 | 90 | 4.8 | 12.9 | 0.00 | 0.00 | 0.00 | 30 | 1025.6 |
| 20260905223015 | 23 | 90 | 1.6 | 6.4 | 0.00 | 0.00 | 0.00 | 29 | 1025.6 |